CYGFM01 (41887 NORAD) Tracking and Keplerian Element Data

This shows tracking and keplerian element data for the satellite.

Feedback or suggestion? Click here.




ElementValue
Catalog41887
NameCYGFM01
Epoch Orbit15270
Epoch Day261.582152
Epoch Year2019
RAAN315.452
Inclination34.9538
Eccentricity0.0015793
Argument of Perigee131.3004
Mean Anonmoly228.9069
Mean Motion15.14259348
Decay Rate2.32E-06
L11 41887U 16078D 19261.58215200 .00000232 00000-0 14165-4 0 9990
L22 41887 34.9538 315.4520 0015793 131.3004 228.9069 15.14259348152702

Live tracking and technical data element details for CYGFM01 (NORAD 41887). CYGFM01 can be tracked NOW for your location showing map with azimuth and elevation plus other details from your city location.

Track the satellite on the map from your city or location and see movement details for azimuth, elevation, latitude, longitude, range, height, and movement on the map or in text.







IsCatalogInMostPopularTable: catalog: 41887, numindb: 305
Update: records affected: 1



GetName: 41887 CYGFM01

Hit Count: updated at: Thu, 19 Sep 2019 17:55:34 GMT